• In Russia
  • List of Countries
  • For 7 days
  • Water Temperature
  • Satellite Maps
  • Weather Map
  • Weather Widgets
  • user-avatar
    Login

    Hourly Weather Sharalday

    Today, 21 September, Friday

    Time Temperature Precipitation Wind Pressure Humidity
    00:00 0°C° 0.1 mm 8 mps 698 mmHg 88%
    01:00 0°C° 0 mm 7 mps 698 mmHg 88%
    02:00 +1°C° 0.1 mm 6 mps 698 mmHg 89%
    03:00 +1°C° 0.1 mm 6 mps 699 mmHg 90%
    04:00 0°C° 0.1 mm 5 mps 699 mmHg 90%
    05:00 +1°C° 0.1 mm 5 mps 699 mmHg 91%
    06:00 +1°C° 0.1 mm 5 mps 700 mmHg 91%
    07:00 +1°C° 0.1 mm 4 mps 700 mmHg 92%
    08:00 +1°C° 0.1 mm 5 mps 700 mmHg 91%
    09:00 +2°C° 0.1 mm 5 mps 701 mmHg 90%
    10:00 +2°C° 0.1 mm 5 mps 701 mmHg 89%
    11:00 +3°C° 0 mm 5 mps 701 mmHg 88%
    12:00 +3°C° 0 mm 5 mps 702 mmHg 87%
    13:00 +5°C° 0 mm 6 mps 702 mmHg 69%
    14:00 +5°C° 0 mm 6 mps 702 mmHg 69%
    15:00 +6°C° 0 mm 5 mps 702 mmHg 69%
    16:00 +6°C° 0 mm 5 mps 702 mmHg 69%
    17:00 +5°C° 0 mm 4 mps 702 mmHg 74%
    18:00 +4°C° 0 mm 3 mps 702 mmHg 78%
    19:00 +3°C° 0 mm 3 mps 702 mmHg 81%
    20:00 +4°C° 0.1 mm 2 mps 702 mmHg 83%
    21:00 +4°C° 0.1 mm 2 mps 703 mmHg 85%
    22:00 +3°C° 0.1 mm 2 mps 703 mmHg 87%
    23:00 +3°C° 0.1 mm 2 mps 703 mmHg 88%

    Tomorrow, 22 September, Saturday

    Time Temperature Precipitation Wind Pressure Humidity
    00:00 +3°C° 0.1 mm 2 mps 703 mmHg 88%
    01:00 +3°C° 0.1 mm 2 mps 703 mmHg 89%
    02:00 +4°C° 0.1 mm 1 mps 704 mmHg 90%
    03:00 +4°C° 0.1 mm 1 mps 704 mmHg 90%
    04:00 +3°C° 0.1 mm 1 mps 704 mmHg 91%
    05:00 +4°C° 0 mm 1 mps 704 mmHg 89%
    06:00 +4°C° 0 mm 1 mps 705 mmHg 88%
    07:00 +5°C° 0 mm 1 mps 705 mmHg 86%
    08:00 +6°C° 0 mm 1 mps 705 mmHg 80%
    09:00 +8°C° 0 mm 1 mps 706 mmHg 74%
    10:00 +9°C° 0 mm 2 mps 706 mmHg 67%
    11:00 +10°C° 0 mm 2 mps 706 mmHg 64%
    12:00 +12°C° 0 mm 2 mps 706 mmHg 61%
    13:00 +13°C° 0 mm 2 mps 706 mmHg 58%
    14:00 +13°C° 0 mm 2 mps 706 mmHg 58%
    15:00 +13°C° 0 mm 2 mps 706 mmHg 58%
    16:00 +13°C° 0 mm 1 mps 705 mmHg 58%
    17:00 +11°C° 0 mm 1 mps 705 mmHg 65%
    18:00 +9°C° 0 mm 1 mps 705 mmHg 71%
    19:00 +7°C° 0 mm 1 mps 705 mmHg 77%
    20:00 +6°C° 0 mm 1 mps 705 mmHg 79%
    21:00 +6°C° 0 mm 1 mps 706 mmHg 81%
    22:00 +5°C° 0 mm 1 mps 706 mmHg 83%
    23:00 +5°C° 0 mm 1 mps 706 mmHg 84%

    Day after tomorrow, 23 September, Sunday

    Time Temperature Precipitation Wind Pressure Humidity
    00:00 +5°C° 0 mm 1 mps 706 mmHg 86%
    01:00 +4°C° 0 mm 1 mps 705 mmHg 87%
    02:00 +4°C° 0 mm 1 mps 705 mmHg 88%
    03:00 +4°C° 0 mm 1 mps 705 mmHg 89%
    04:00 +3°C° 0 mm 1 mps 705 mmHg 90%
    05:00 +4°C° 0 mm 1 mps 705 mmHg 87%
    06:00 +5°C° 0 mm 1 mps 705 mmHg 85%
    07:00 +5°C° 0 mm 1 mps 706 mmHg 83%
    08:00 +7°C° 0 mm 2 mps 705 mmHg 76%
    09:00 +9°C° 0 mm 2 mps 705 mmHg 68%
    10:00 +12°C° 0 mm 2 mps 705 mmHg 61%
    11:00 +13°C° 0 mm 2 mps 705 mmHg 57%
    12:00 +14°C° 0 mm 2 mps 704 mmHg 53%
    13:00 +15°C° 0 mm 2 mps 704 mmHg 49%
    14:00 +15°C° 0 mm 2 mps 703 mmHg 51%
    15:00 +15°C° 0 mm 2 mps 703 mmHg 52%
    16:00 +15°C° 0 mm 2 mps 703 mmHg 54%
    17:00 +13°C° 0 mm 2 mps 703 mmHg 63%
    18:00 +9°C° 0 mm 2 mps 703 mmHg 72%
    19:00 +8°C° 0 mm 1 mps 703 mmHg 81%
    20:00 +8°C° 0 mm 1 mps 703 mmHg 84%
    21:00 +7°C° 0 mm 1 mps 703 mmHg 87%
    22:00 +6°C° 0 mm 1 mps 703 mmHg 89%
    23:00 +6°C° 0 mm 1 mps 703 mmHg 90%

    24 September, Monday

    Time Temperature Precipitation Wind Pressure Humidity
    00:00 +6°C° 0 mm 1 mps 702 mmHg 91%
    01:00 +5°C° 0 mm 1 mps 702 mmHg 92%
    02:00 +5°C° 0 mm 1 mps 702 mmHg 92%
    03:00 +5°C° 0 mm 1 mps 702 mmHg 92%
    04:00 +4°C° 0 mm 1 mps 702 mmHg 93%
    05:00 +5°C° 0 mm 1 mps 702 mmHg 90%
    06:00 +5°C° 0 mm 1 mps 702 mmHg 87%
    07:00 +6°C° 0 mm 1 mps 702 mmHg 85%
    08:00 +8°C° 0 mm 1 mps 701 mmHg 77%
    09:00 +10°C° 0 mm 1 mps 701 mmHg 69%
    10:00 +12°C° 0 mm 1 mps 701 mmHg 62%
    11:00 +13°C° 0 mm 1 mps 701 mmHg 57%
    12:00 +14°C° 0 mm 1 mps 701 mmHg 53%
    13:00 +16°C° 0 mm 1 mps 700 mmHg 49%
    14:00 +15°C° 0 mm 1 mps 700 mmHg 50%
    15:00 +15°C° 0 mm 1 mps 700 mmHg 51%
    16:00 +15°C° 0 mm 1 mps 700 mmHg 53%
    17:00 +13°C° 0 mm 1 mps 700 mmHg 60%
    18:00 +11°C° 0 mm 1 mps 699 mmHg 68%
    19:00 +9°C° 0 mm 1 mps 699 mmHg 76%
    20:00 +8°C° 0 mm 1 mps 699 mmHg 78%
    21:00 +8°C° 0 mm 1 mps 700 mmHg 80%
    22:00 +7°C° 0 mm 1 mps 700 mmHg 82%
    23:00 +7°C° 0 mm 1 mps 699 mmHg 84%

    25 September, Tuesday

    Time Temperature Precipitation Wind Pressure Humidity
    00:00 +6°C° 0 mm 1 mps 699 mmHg 85%
    01:00 +6°C° 0 mm 1 mps 699 mmHg 86%
    02:00 +6°C° 0 mm 1 mps 699 mmHg 87%
    03:00 +5°C° 0 mm 1 mps 699 mmHg 88%
    04:00 +5°C° 0 mm 1 mps 698 mmHg 89%
    05:00 +6°C° 0 mm 1 mps 699 mmHg 86%
    06:00 +6°C° 0 mm 1 mps 699 mmHg 84%
    07:00 +7°C° 0 mm 1 mps 699 mmHg 81%
    08:00 +10°C° 0 mm 1 mps 699 mmHg 72%
    09:00 +12°C° 0 mm 1 mps 699 mmHg 63%
    10:00 +15°C° 0 mm 1 mps 699 mmHg 54%
    11:00 +16°C° 0 mm 1 mps 698 mmHg 49%
    12:00 +18°C° 0 mm 1 mps 698 mmHg 45%
    13:00 +20°C° 0 mm 1 mps 698 mmHg 41%
    14:00 +19°C° 0 mm 1 mps 698 mmHg 43%
    15:00 +19°C° 0 mm 1 mps 697 mmHg 44%
    16:00 +19°C° 0 mm 1 mps 697 mmHg 46%
    17:00 +16°C° 0 mm 1 mps 697 mmHg 53%
    18:00 +13°C° 0 mm 1 mps 697 mmHg 60%
    19:00 +11°C° 0 mm 1 mps 697 mmHg 67%
    20:00 +11°C° 0 mm 1 mps 697 mmHg 69%
    21:00 +10°C° 0 mm 1 mps 697 mmHg 71%
    22:00 +10°C° 0 mm 1 mps 697 mmHg 73%
    23:00 +10°C° 0 mm 1 mps 697 mmHg 74%

    26 September, Wednesday

    Time Temperature Precipitation Wind Pressure Humidity
    00:00 +9°C° 0 mm 1 mps 697 mmHg 76%
    01:00 +9°C° 0 mm 1 mps 697 mmHg 77%
    02:00 +9°C° 0.2 mm 1 mps 697 mmHg 80%
    03:00 +9°C° 0.2 mm 1 mps 697 mmHg 83%
    04:00 +9°C° 0.2 mm 1 mps 697 mmHg 86%
    05:00 +8°C° 0.7 mm 2 mps 697 mmHg 88%
    06:00 +7°C° 0.7 mm 2 mps 698 mmHg 90%
    07:00 +7°C° 0.7 mm 2 mps 698 mmHg 92%
    08:00 +8°C° 0.5 mm 3 mps 698 mmHg 89%
    09:00 +8°C° 0.5 mm 3 mps 699 mmHg 86%
    10:00 +7°C° 0.5 mm 4 mps 699 mmHg 84%
    11:00 +8°C° 0.1 mm 4 mps 699 mmHg 80%
    12:00 +8°C° 0.1 mm 4 mps 699 mmHg 77%
    13:00 +10°C° 0.1 mm 4 mps 699 mmHg 74%
    14:00 +10°C° 0 mm 4 mps 699 mmHg 71%
    15:00 +10°C° 0 mm 3 mps 700 mmHg 69%
    16:00 +11°C° 0 mm 3 mps 700 mmHg 67%
    17:00 +9°C° 0 mm 2 mps 700 mmHg 73%
    18:00 +8°C° 0 mm 1 mps 700 mmHg 79%
    19:00 +7°C° 0 mm 1 mps 700 mmHg 85%
    20:00 +7°C° 0 mm 1 mps 700 mmHg 85%
    21:00 +6°C° 0 mm 1 mps 700 mmHg 86%
    22:00 +5°C° 0 mm 2 mps 700 mmHg 86%
    23:00 +5°C° 0 mm 2 mps 699 mmHg 87%
    Show more